Terminal Aerodrome Forecast
Issued by NWS

Home | Current Version | Previous Version | Text Only | Print | Product List | Glossary On
Versions: 1 2 3 4 5 6 7 8 9 10 11 12 13
465
FTUS45 KFGZ 082328
TAFSEZ
TAF
KSEZ 082328Z 0900/0924 VRB04KT P6SM FEW120 SCT250
     FM090200 04010KT P6SM FEW120 SCT170 BKN250
     FM091600 VRB04KT P6SM SCT170 BKN250=

USA.gov is the U.S. government's official web portal to all federal, state and local government web resources and services.